• In Hungary
  • List of Countries
  • For 7 days
  • Water Temperature
  • Satellite Maps
  • Weather Map
  • News
  • Weather Widgets
  • user-avatar
    Login

    Hourly Weather Abovyan

    Today, 19 October, Friday

    Time Temperature Precipitation Wind Pressure Humidity
    00:00 +13°C° 0 mm 1 mps 673 mmHg 64%
    01:00 +12°C° 0 mm 1 mps 673 mmHg 67%
    02:00 +12°C° 0 mm 1 mps 673 mmHg 69%
    03:00 +12°C° 0 mm 1 mps 673 mmHg 72%
    04:00 +11°C° 0 mm 1 mps 673 mmHg 72%
    05:00 +11°C° 0 mm 1 mps 673 mmHg 73%
    06:00 +11°C° 0 mm 1 mps 673 mmHg 74%
    07:00 +13°C° 0 mm 1 mps 674 mmHg 63%
    08:00 +15°C° 0 mm 1 mps 674 mmHg 53%
    09:00 +18°C° 0 mm 1 mps 675 mmHg 43%
    10:00 +20°C° 0 mm 1 mps 675 mmHg 38%
    11:00 +21°C° 0 mm 1 mps 675 mmHg 34%
    12:00 +21°C° 0 mm 2 mps 675 mmHg 29%
    13:00 +21°C° 0 mm 2 mps 674 mmHg 28%
    14:00 +21°C° 0 mm 2 mps 674 mmHg 28%
    15:00 +23°C° 0 mm 2 mps 674 mmHg 27%
    16:00 +21°C° 0 mm 1 mps 673 mmHg 32%
    17:00 +19°C° 0 mm 1 mps 673 mmHg 37%
    18:00 +16°C° 0 mm 1 mps 673 mmHg 42%
    19:00 +15°C° 0 mm 1 mps 673 mmHg 44%
    20:00 +15°C° 0 mm 1 mps 673 mmHg 46%
    21:00 +14°C° 0 mm 1 mps 673 mmHg 48%
    22:00 +14°C° 0 mm 1 mps 673 mmHg 49%
    23:00 +14°C° 0 mm 1 mps 673 mmHg 50%

    Tomorrow, 20 October, Saturday

    Time Temperature Precipitation Wind Pressure Humidity
    00:00 +13°C° 0 mm 1 mps 673 mmHg 51%
    01:00 +13°C° 0 mm 1 mps 673 mmHg 50%
    02:00 +13°C° 0 mm 1 mps 673 mmHg 50%
    03:00 +12°C° 0 mm 1 mps 673 mmHg 49%
    04:00 +12°C° 0.2 mm 1 mps 672 mmHg 49%
    05:00 +12°C° 0.2 mm 1 mps 672 mmHg 49%
    06:00 +12°C° 0.2 mm 1 mps 672 mmHg 49%
    07:00 +14°C° 0.2 mm 1 mps 673 mmHg 47%
    08:00 +16°C° 0.2 mm 1 mps 673 mmHg 44%
    09:00 +19°C° 0.2 mm 1 mps 674 mmHg 42%
    10:00 +19°C° 0.1 mm 2 mps 674 mmHg 41%
    11:00 +20°C° 0.1 mm 2 mps 673 mmHg 39%
    12:00 +21°C° 0.1 mm 2 mps 673 mmHg 38%
    13:00 +21°C° 0.1 mm 2 mps 673 mmHg 37%
    14:00 +23°C° 0.1 mm 2 mps 672 mmHg 36%
    15:00 +23°C° 0.1 mm 2 mps 672 mmHg 36%
    16:00 +20°C° 0.2 mm 2 mps 672 mmHg 40%
    17:00 +18°C° 0.2 mm 2 mps 671 mmHg 44%
    18:00 +18°C° 0.2 mm 1 mps 671 mmHg 49%
    19:00 +16°C° 0.2 mm 1 mps 671 mmHg 49%
    20:00 +16°C° 0.2 mm 1 mps 671 mmHg 50%
    21:00 +16°C° 0.2 mm 1 mps 672 mmHg 51%
    22:00 +15°C° 0.2 mm 1 mps 671 mmHg 52%
    23:00 +15°C° 0.2 mm 1 mps 671 mmHg 53%

    Day after tomorrow, 21 October, Sunday

    Time Temperature Precipitation Wind Pressure Humidity
    00:00 +14°C° 0.2 mm 1 mps 671 mmHg 53%
    01:00 +14°C° 0.1 mm 1 mps 671 mmHg 54%
    02:00 +14°C° 0.1 mm 1 mps 671 mmHg 55%
    03:00 +14°C° 0.1 mm 1 mps 671 mmHg 56%
    04:00 +14°C° 0.1 mm 1 mps 671 mmHg 57%
    05:00 +13°C° 0.1 mm 1 mps 671 mmHg 58%
    06:00 +13°C° 0.1 mm 1 mps 670 mmHg 59%
    07:00 +15°C° 0.2 mm 1 mps 671 mmHg 55%
    08:00 +16°C° 0.2 mm 2 mps 671 mmHg 51%
    09:00 +18°C° 0.2 mm 2 mps 672 mmHg 48%
    10:00 +18°C° 0.2 mm 2 mps 672 mmHg 47%
    11:00 +19°C° 0.2 mm 2 mps 671 mmHg 45%
    12:00 +20°C° 0.2 mm 2 mps 671 mmHg 44%
    13:00 +19°C° 0.5 mm 2 mps 671 mmHg 46%
    14:00 +19°C° 0.5 mm 2 mps 671 mmHg 47%
    15:00 +19°C° 0.5 mm 2 mps 670 mmHg 48%
    16:00 +18°C° 0.2 mm 2 mps 670 mmHg 51%
    17:00 +17°C° 0.2 mm 2 mps 670 mmHg 54%
    18:00 +15°C° 0.2 mm 1 mps 670 mmHg 57%
    19:00 +15°C° 0.1 mm 1 mps 670 mmHg 57%
    20:00 +15°C° 0.1 mm 1 mps 670 mmHg 58%
    21:00 +14°C° 0.1 mm 1 mps 670 mmHg 58%
    22:00 +14°C° 0.1 mm 1 mps 670 mmHg 59%
    23:00 +14°C° 0.1 mm 1 mps 670 mmHg 61%

    22 October, Monday

    Time Temperature Precipitation Wind Pressure Humidity
    00:00 +14°C° 0.1 mm 1 mps 670 mmHg 62%
    01:00 +13°C° 0.1 mm 1 mps 670 mmHg 64%
    02:00 +13°C° 0.1 mm 1 mps 670 mmHg 65%
    03:00 +13°C° 0.1 mm 1 mps 670 mmHg 67%
    04:00 +13°C° 0.1 mm 1 mps 670 mmHg 70%
    05:00 +13°C° 0.1 mm 1 mps 670 mmHg 73%
    06:00 +12°C° 0.1 mm 1 mps 670 mmHg 75%
    07:00 +14°C° 0.2 mm 1 mps 670 mmHg 69%
    08:00 +15°C° 0.2 mm 2 mps 671 mmHg 63%
    09:00 +17°C° 0.2 mm 2 mps 671 mmHg 58%
    10:00 +18°C° 0.1 mm 2 mps 671 mmHg 54%
    11:00 +19°C° 0.1 mm 3 mps 671 mmHg 51%
    12:00 +20°C° 0.1 mm 3 mps 671 mmHg 47%
    13:00 +20°C° 0.1 mm 3 mps 671 mmHg 46%
    14:00 +20°C° 0.1 mm 3 mps 671 mmHg 46%
    15:00 +21°C° 0.1 mm 3 mps 670 mmHg 45%
    16:00 +19°C° 0.1 mm 3 mps 670 mmHg 50%
    17:00 +18°C° 0.1 mm 2 mps 670 mmHg 54%
    18:00 +16°C° 0.1 mm 2 mps 670 mmHg 59%
    19:00 +16°C° 0 mm 2 mps 671 mmHg 60%
    20:00 +15°C° 0 mm 2 mps 671 mmHg 61%
    21:00 +15°C° 0 mm 1 mps 671 mmHg 62%
    22:00 +14°C° 0 mm 1 mps 671 mmHg 62%
    23:00 +14°C° 0 mm 1 mps 671 mmHg 62%

    23 October, Tuesday

    Time Temperature Precipitation Wind Pressure Humidity
    00:00 +14°C° 0 mm 1 mps 671 mmHg 63%
    01:00 +13°C° 0 mm 1 mps 671 mmHg 64%
    02:00 +13°C° 0 mm 1 mps 671 mmHg 65%
    03:00 +12°C° 0 mm 1 mps 671 mmHg 66%
    04:00 +12°C° 0 mm 1 mps 671 mmHg 67%
    05:00 +12°C° 0 mm 1 mps 671 mmHg 68%
    06:00 +12°C° 0 mm 1 mps 671 mmHg 69%
    07:00 +13°C° 0 mm 2 mps 672 mmHg 63%
    08:00 +15°C° 0 mm 2 mps 672 mmHg 57%
    09:00 +17°C° 0 mm 3 mps 673 mmHg 51%
    10:00 +18°C° 0 mm 3 mps 672 mmHg 48%
    11:00 +19°C° 0 mm 3 mps 672 mmHg 44%
    12:00 +20°C° 0 mm 3 mps 672 mmHg 41%
    13:00 +20°C° 0 mm 3 mps 672 mmHg 41%
    14:00 +20°C° 0 mm 3 mps 672 mmHg 41%
    15:00 +21°C° 0 mm 3 mps 672 mmHg 41%
    16:00 +19°C° 0.3 mm 3 mps 672 mmHg 46%
    17:00 +18°C° 0.3 mm 3 mps 672 mmHg 50%
    18:00 +16°C° 0.3 mm 3 mps 672 mmHg 55%
    19:00 +16°C° 0.1 mm 2 mps 672 mmHg 58%
    20:00 +15°C° 0.1 mm 2 mps 672 mmHg 61%
    21:00 +14°C° 0.1 mm 2 mps 672 mmHg 64%
    22:00 +14°C° 0 mm 2 mps 672 mmHg 66%
    23:00 +14°C° 0 mm 2 mps 672 mmHg 68%

    24 October, Wednesday

    Time Temperature Precipitation Wind Pressure Humidity
    00:00 +13°C° 0 mm 2 mps 672 mmHg 69%
    01:00 +13°C° 0 mm 2 mps 671 mmHg 71%
    02:00 +13°C° 0 mm 2 mps 671 mmHg 73%
    03:00 +13°C° 0 mm 2 mps 671 mmHg 75%
    04:00 +12°C° 0 mm 2 mps 671 mmHg 76%
    05:00 +12°C° 0 mm 2 mps 671 mmHg 76%
    06:00 +12°C° 0 mm 2 mps 671 mmHg 77%
    07:00 +14°C° 0 mm 2 mps 671 mmHg 71%
    08:00 +14°C° 0 mm 3 mps 671 mmHg 64%
    09:00 +17°C° 0 mm 3 mps 671 mmHg 58%
    10:00 +18°C° 0 mm 3 mps 671 mmHg 53%
    11:00 +19°C° 0 mm 4 mps 671 mmHg 49%
    12:00 +20°C° 0 mm 4 mps 670 mmHg 44%
    13:00 +21°C° 0 mm 4 mps 670 mmHg 44%
    14:00 +21°C° 0 mm 4 mps 669 mmHg 43%
    15:00 +21°C° 0 mm 4 mps 669 mmHg 42%
    16:00 +19°C° 0.1 mm 4 mps 668 mmHg 47%
    17:00 +18°C° 0.1 mm 3 mps 668 mmHg 52%
    18:00 +16°C° 0.1 mm 3 mps 668 mmHg 56%
    19:00 +16°C° 0.1 mm 2 mps 668 mmHg 57%
    20:00 +15°C° 0.1 mm 2 mps 667 mmHg 57%
    21:00 +15°C° 0.1 mm 2 mps 667 mmHg 57%
    22:00 +15°C° 0.1 mm 2 mps 667 mmHg 58%
    23:00 +15°C° 0.1 mm 2 mps 667 mmHg 59%
    Show more